Flag for U.S.A. Weather past 2 weeks in Minot, North Dakota, U.S.A.

Now
21 °F

Ice fog.


Feels Like: 13 °F
Forecast: 21 / 30 °F
Wind: 6 mph from Southeast

Location: Minot International Airport

Current Time: Dec 20, 2014 at 12:00:26 PM

Latest Report: Dec 20, 2014 at 11:02 AM


Visibility: 2 mi

Pressure: 29.87 "Hg

Humidity: 92%

Dew point: 19 °F

Location of MinotLocation

Historic Weather in Minot — Graph

°F

Minot temperature yesterday

Maximum temperature yesterday: 28 °F (at 8:01 AM)
Minimum temperature yesterday: 23 °F (at 11:54 PM)
Average temperature yesterday: 26 °F

Past Weeks' High & Low Weather Summary

 TemperatureHumidityPressure
High44 °F (Dec 12, 3:54 PM)96% (Dec 14, 3:54 AM)30.55 "Hg (Dec 14, 3:54 AM)
Low4 °F (Dec 8, 10:54 PM)60% (Dec 12, 3:54 PM)29.70 "Hg (Dec 13, 1:54 PM)
Average24 °F82%30.11 "Hg
* Reported Dec 5 11:54 AM — Dec 20 11:02 AM, Minot, Weather by CustomWeather, © 2014

Note: Actual official high and low records may vary slightly from our data, if they occured in-between our weather recording intervals... More about our weather records

Advertising

Minot weather history for previous 24 hours

 ConditionsComfort  
Time TempWeatherWind HumidityBarometerVisibility
11:02 AM
Dec 20
21 °FIce fog.6 mph92%29.87 "Hg2 mi
9:54 AM21 °FIce fog.7 mph92%29.96 "Hg0 mi
8:54 AM22 °FIce fog.7 mph92%29.96 "Hg0 mi
7:54 AM23 °FIce fog.7 mph92%29.96 "Hg0 mi
6:54 AM23 °FIce fog.8 mph92%29.96 "Hg0 mi
5:54 AM22 °FIce fog.8 mph92%29.98 "Hg0 mi
4:54 AM22 °FIce fog.7 mph92%29.98 "Hg0 mi
3:54 AM22 °FIce fog.5 mph92%29.99 "Hg0 mi
3:04 AM21 °FIce fog.6 mph92%29.92 "Hg0 mi
2:54 AM21 °FIce fog.3 mph92%30.00 "Hg0 mi
1:54 AM21 °FIce fog.No wind92%30.00 "Hg1 mi
12:54 AM22 °FIce fog.5 mph89%30.01 "Hg0 mi
11:54 PM
Dec 19
23 °FIce fog.5 mph92%30.01 "Hg1 mi
11:04 PM24 °FIce fog.5 mph91%29.93 "Hg1 mi
10:54 PM24 °FIce fog.No wind91%30.01 "Hg2 mi
9:54 PM25 °FIce fog.6 mph92%30.01 "Hg2 mi
8:54 PM26 °FIce fog.No wind92%30.00 "Hg2 mi
7:54 PM26 °FIce fog.3 mph92%30.01 "Hg1 mi
6:54 PM26 °FIce fog.No wind96%30.00 "Hg2 mi
5:54 PM26 °FIce fog.No wind92%30.01 "Hg3 mi
4:54 PM27 °FIce fog.No wind92%30.01 "Hg3 mi
3:54 PM27 °FIce fog.3 mph92%30.01 "Hg3 mi
2:54 PM27 °FIce fog.No wind92%29.99 "Hg3 mi
1:54 PM28 °FIce fog.5 mph89%29.98 "Hg3 mi
12:54 PM27 °FIce fog.6 mph92%30.00 "Hg4 mi
Weather by CustomWeather, © 2014

See weather overviewHow to use our weather pages